TimeEST,TemperatureF,Dew PointF,Humidity,Sea Level PressureIn,VisibilityMPH,Wind Direction,Wind SpeedMPH,Gust SpeedMPH,PrecipitationIn,Events,Conditions,WindDirDegrees,DateUTC
12:53 AM,39.9,18.0,41,30.10,10.0,WSW,4.6,-,N/A,,Clear,240,2012-11-26 05:53:00
1:53 AM,41.0,17.1,38,30.10,10.0,WNW,4.6,-,N/A,,Clear,290,2012-11-26 06:53:00
2:53 AM,37.9,18.0,45,30.11,10.0,West,3.5,-,N/A,,Clear,270,2012-11-26 07:53:00
3:53 AM,39.0,17.1,41,30.11,10.0,NW,3.5,-,N/A,,Clear,310,2012-11-26 08:53:00
4:53 AM,39.9,17.1,40,30.11,10.0,West,3.5,-,N/A,,Clear,280,2012-11-26 09:53:00
5:53 AM,37.0,19.9,50,30.14,10.0,Calm,Calm,-,N/A,,Clear,0,2012-11-26 10:53:00
6:53 AM,36.0,21.0,55,30.16,10.0,Calm,Calm,-,N/A,,Clear,0,2012-11-26 11:53:00
7:53 AM,36.0,24.1,62,30.17,10.0,Calm,Calm,-,N/A,,Clear,0,2012-11-26 12:53:00
8:53 AM,53.1,21.0,29,30.19,10.0,Variable,3.5,-,N/A,,Clear,0,2012-11-26 13:53:00
9:53 AM,55.0,24.1,30,30.21,10.0,Calm,Calm,-,N/A,,Clear,0,2012-11-26 14:53:00
10:53 AM,62.1,21.9,21,30.20,10.0,Variable,3.5,-,N/A,,Clear,0,2012-11-26 15:53:00
11:53 AM,64.0,21.9,20,30.19,10.0,Variable,6.9,-,N/A,,Clear,0,2012-11-26 16:53:00
12:53 PM,64.0,21.0,19,30.17,10.0,Variable,3.5,-,N/A,,Clear,0,2012-11-26 17:53:00
1:53 PM,66.9,24.1,20,30.15,10.0,South,8.1,-,N/A,,Clear,180,2012-11-26 18:53:00
2:53 PM,68.0,25.0,20,30.14,10.0,Variable,5.8,-,N/A,,Clear,0,2012-11-26 19:53:00
3:53 PM,66.9,25.0,21,30.13,10.0,SW,8.1,-,N/A,,Clear,220,2012-11-26 20:53:00
4:53 PM,64.9,23.0,20,30.13,10.0,SSW,5.8,-,N/A,,Clear,210,2012-11-26 21:53:00
5:53 PM,62.1,23.0,22,30.15,10.0,South,4.6,-,N/A,,Clear,190,2012-11-26 22:53:00
6:53 PM,60.1,24.1,25,30.16,10.0,South,4.6,-,N/A,,Clear,190,2012-11-26 23:53:00
7:53 PM,57.0,25.0,29,30.16,10.0,Calm,Calm,-,N/A,,Clear,0,2012-11-27 00:53:00
8:53 PM,55.0,26.1,33,30.16,10.0,Calm,Calm,-,N/A,,Clear,0,2012-11-27 01:53:00
9:53 PM,52.0,26.1,37,30.16,10.0,SW,4.6,-,N/A,,Scattered Clouds,220,2012-11-27 02:53:00
10:53 PM,52.0,25.0,35,30.16,10.0,SW,5.8,-,N/A,,Partly Cloudy,220,2012-11-27 03:53:00
11:53 PM,53.1,25.0,34,30.15,10.0,SW,3.5,-,N/A,,Overcast,230,2012-11-27 04:53:00